sat.trackr.live / text

‹ back to catalog

STARLINK-2049

NORAD 47356 · 2021-005H

PAYLOAD ACTIVE UNKNOWN

§ Identity

Operator
Country
US
Launch date
2021-01-20
Launch site
AFETR
Launch vehicle
Mass (kg)
RCS (m²)

Purposes: comms

External: N2YO · Heavens-Above · Gunter

§ Orbital elements

Epoch: 2026-09-19T12:54:41.623200Z

Period
94.01 min
Inclination
53.1599°
Eccentricity
0.0001372
Mean motion
15.31698998 rev/d
Perigee alt
469.8 km
Apogee alt
471.7 km
Semi-major
6,848.9 km
B*
4.7213e-5
RAAN
214.8406°
Arg perigee
77.0276°
Mean anomaly
283.0879°
Rev number
31,308

§ Raw data

STARLINK-20491 47356U 21005H   26262.53798175  .00001100  00000+0  47213-4 0  99982 47356  53.1599 214.8406 0001372  77.0276 283.0879 15.31698998313087

JSON: /api/v1/satellites/47356 · /tle

For live sub-satellite position, see the globe view (requires WebGL).

§ Visibility from observer

Set your observer location to see the next 7 days of passes ≥ 10°. The values pass through the URL so the page stays shareable.

No JS? Fill the form by hand. The geolocation button needs JavaScript.